| time (UTC) | temp C | wind direction | speed KPH | gust KPH | rain 1hr cm | rain 24hr cm | rain mn cm | humidity % | barometer mb |
| 20260506095801 | 10 | 230 | 6.4 | 0.0 | 0.00 | 0.00 | 0.00 | 90 | 1005.8 |
| 20260506095702 | 10 | 230 | 6.4 | 0.0 | 0.00 | 0.00 | 0.00 | 90 | 1005.8 |
| 20260506095601 | 10 | 230 | 6.4 | 0.0 | 0.00 | 0.00 | 0.00 | 90 | 1005.8 |
| 20260506095502 | 10 | 242 | 6.4 | 0.0 | 0.00 | 0.00 | 0.00 | 90 | 1005.7 |
| 20260506095402 | 10 | 242 | 6.4 | 0.0 | 0.00 | 0.00 | 0.00 | 90 | 1005.7 |
| 20260506095305 | 10 | 235 | 6.4 | 0.0 | 0.00 | 0.00 | 0.00 | 90 | 1005.7 |
| 20260506095202 | 10 | 235 | 6.4 | 0.0 | 0.00 | 0.00 | 0.00 | 90 | 1005.7 |
| 20260506095101 | 10 | 235 | 6.4 | 0.0 | 0.00 | 0.00 | 0.00 | 90 | 1005.7 |
| 20260506095002 | 10 | 222 | 9.7 | 0.0 | 0.00 | 0.00 | 0.00 | 90 | 1005.7 |
| 20260506094901 | 10 | 222 | 9.7 | 0.0 | 0.00 | 0.00 | 0.00 | 90 | 1005.7 |
| 20260506094802 | 10 | 250 | 8.0 | 0.0 | 0.00 | 0.00 | 0.00 | 90 | 1005.7 |
| 20260506094701 | 10 | 250 | 8.0 | 0.0 | 0.00 | 0.00 | 0.00 | 90 | 1005.7 |
| 20260506094602 | 10 | 250 | 8.0 | 0.0 | 0.00 | 0.00 | 0.00 | 90 | 1005.7 |
| 20260506094502 | 10 | 250 | 8.0 | 0.0 | 0.00 | 0.00 | 0.00 | 90 | 1005.7 |
| 20260506094401 | 10 | 250 | 8.0 | 0.0 | 0.00 | 0.00 | 0.00 | 90 | 1005.7 |
| 20260506094302 | 10 | 230 | 6.4 | 0.0 | 0.00 | 0.00 | 0.00 | 90 | 1005.7 |
| 20260506094201 | 10 | 230 | 6.4 | 0.0 | 0.00 | 0.00 | 0.00 | 90 | 1005.6 |
| 20260506094102 | 10 | 230 | 6.4 | 0.0 | 0.00 | 0.00 | 0.00 | 90 | 1005.6 |
| 20260506094001 | 10 | 217 | 6.4 | 0.0 | 0.00 | 0.00 | 0.00 | 91 | 1005.6 |
| 20260506093902 | 10 | 217 | 6.4 | 0.0 | 0.00 | 0.00 | 0.00 | 91 | 1005.5 |
| 20260506093802 | 10 | 217 | 6.4 | 0.0 | 0.00 | 0.00 | 0.00 | 91 | 1005.6 |
| 20260506093702 | 10 | 217 | 6.4 | 0.0 | 0.00 | 0.00 | 0.00 | 91 | 1005.5 |
| 20260506093602 | 10 | 217 | 6.4 | 0.0 | 0.00 | 0.00 | 0.00 | 91 | 1005.5 |
| 20260506093502 | 10 | 230 | 6.4 | 0.0 | 0.00 | 0.00 | 0.00 | 91 | 1005.5 |
| 20260506093402 | 10 | 230 | 6.4 | 0.0 | 0.00 | 0.00 | 0.00 | 91 | 1005.5 |
| 20260506093301 | 10 | 230 | 6.4 | 0.0 | 0.00 | 0.00 | 0.00 | 91 | 1005.5 |
| 20260506093202 | 10 | 230 | 6.4 | 0.0 | 0.00 | 0.00 | 0.00 | 91 | 1005.5 |
| 20260506093101 | 10 | 230 | 6.4 | 0.0 | 0.00 | 0.00 | 0.00 | 91 | 1005.5 |
| 20260506093002 | 10 | 235 | 4.8 | 0.0 | 0.00 | 0.00 | 0.00 | 91 | 1005.6 |
| 20260506092901 | 10 | 235 | 4.8 | 0.0 | 0.00 | 0.00 | 0.00 | 91 | 1005.6 |
| 20260506092802 | 10 | 235 | 4.8 | 0.0 | 0.00 | 0.00 | 0.00 | 91 | 1005.6 |
| 20260506092702 | 10 | 240 | 0.0 | 0.0 | 0.00 | 0.00 | 0.00 | 91 | 1005.7 |
| 20260506092601 | 10 | 240 | 0.0 | 0.0 | 0.00 | 0.00 | 0.00 | 91 | 1005.7 |
| 20260506092502 | 10 | 247 | 0.0 | 0.0 | 0.00 | 0.00 | 0.00 | 91 | 1005.7 |
| 20260506092401 | 10 | 247 | 0.0 | 0.0 | 0.00 | 0.00 | 0.00 | 91 | 1005.7 |
| 20260506092302 | 10 | 247 | 0.0 | 0.0 | 0.00 | 0.00 | 0.00 | 91 | 1005.8 |